DW8231 Weather Reports


Display with metric or nautical units.
time (UTC)temp
F
wind
direction
speed
MPH
gust
MPH
rain 1hr
in
rain 24hr
in
rain mn
in
humidity
%
barometer
mb
20260508035552 49 262 0.0 2.0 0.00 0.00 0.00 38 1009.6
20260508035048 49 262 0.0 3.0 0.00 0.00 0.00 38 1009.7
20260508034548 49 262 0.0 3.0 0.00 0.00 0.00 38 1009.7
20260508034047 49 262 0.0 3.0 0.00 0.00 0.00 37 1009.8
20260508033547 49 262 0.0 2.0 0.00 0.00 0.00 37 1009.7
20260508033046 50 262 0.0 0.0 0.00 0.00 0.00 37 1009.7
20260508032550 50 262 0.0 0.0 0.00 0.00 0.00 37 1009.7
20260508032046 50 262 0.0 0.0 0.00 0.00 0.00 37 1009.8
20260508031546 50 262 0.0 0.0 0.00 0.00 0.00 36 1009.7
20260508031147 50 262 0.0 0.0 0.00 0.00 0.00 35 1009.7
20260508030547 50 262 0.0 0.0 0.00 0.00 0.00 35 1009.7
20260508030048 50 262 0.0 0.0 0.00 0.00 0.00 35 1009.8
20260508025549 50 262 0.0 0.0 0.00 0.00 0.00 35 1009.8
20260508025046 51 262 0.0 0.0 0.00 0.00 0.00 35 1009.7
20260508024551 51 262 0.0 0.0 0.00 0.00 0.00 35 1009.7
20260508024046 51 262 0.0 0.0 0.00 0.00 0.00 35 1009.7
20260508023546 51 262 0.0 1.0 0.00 0.00 0.00 36 1009.7
20260508023046 51 262 0.0 1.0 0.00 0.00 0.00 36 1009.6
20260508022546 51 262 0.0 1.0 0.00 0.00 0.00 36 1009.7
20260508022048 52 262 0.0 1.0 0.00 0.00 0.00 36 1009.7
20260508021549 52 262 0.0 0.0 0.00 0.00 0.00 35 1009.7
20260508021149 53 262 0.0 0.0 0.00 0.00 0.00 32 1009.6
20260508020545 53 262 0.0 0.0 0.00 0.00 0.00 32 1009.6
20260508020046 53 262 0.0 0.0 0.00 0.00 0.00 32 1009.6
20260508015545 53 262 0.0 2.0 0.00 0.00 0.00 31 1009.4
20260508015045 53 262 0.0 2.0 0.00 0.00 0.00 31 1009.4
20260508014550 53 262 0.0 2.0 0.00 0.00 0.00 31 1009.4
20260508014045 53 262 0.0 2.0 0.00 0.00 0.00 31 1009.4
20260508013544 54 262 0.0 3.0 0.00 0.00 0.00 31 1009.3
20260508013047 54 262 0.0 3.0 0.00 0.00 0.00 31 1009.3
20260508012545 54 262 0.0 3.0 0.00 0.00 0.00 31 1009.3
20260508012045 54 262 0.0 3.0 0.00 0.00 0.00 31 1009.3
20260508011545 54 262 0.0 3.0 0.00 0.00 0.00 30 1009.3
20260508011146 55 262 1.0 9.0 0.00 0.00 0.00 30 1009.2
20260508010544 55 262 3.0 9.0 0.00 0.00 0.00 30 1009.2
20260508010045 55 263 2.0 7.0 0.00 0.00 0.00 29 1009.3
20260508005544 56 261 2.0 7.0 0.00 0.00 0.00 29 1009.3
20260508005047 56 259 1.0 8.0 0.00 0.00 0.00 29 1009.3
20260508004546 56 259 3.0 8.0 0.00 0.00 0.00 28 1009.2
20260508004044 56 275 3.0 7.0 0.00 0.00 0.00 28 1009.3
20260508003543 56 275 2.0 9.0 0.00 0.00 0.00 29 1009.3
20260508003044 56 276 3.0 10.0 0.00 0.00 0.00 28 1009.2
20260508002543 56 243 2.0 10.0 0.00 0.00 0.00 28 1009.2
20260508002043 57 288 3.0 10.0 0.00 0.00 0.00 27 1009.2
20260508001542 57 262 3.0 10.0 0.00 0.00 0.00 27 1009.3
20260508001144 57 298 4.0 9.0 0.00 0.00 0.00 27 1009.4
20260508000543 57 297 4.0 10.0 0.00 0.00 0.00 28 1009.4
20260508000047 57 284 4.0 10.0 0.00 0.00 0.00 27 1009.4
20260507235541 57 296 4.0 11.0 0.00 0.00 0.00 26 1009.5
20260507235044 57 250 2.0 11.0 0.00 0.00 0.00 28 1009.5
20260507234541 57 259 3.0 14.0 0.00 0.00 0.00 26 1009.6
20260507234041 57 234 6.0 14.0 0.00 0.00 0.00 26 1009.6
20260507233542 57 226 4.0 11.0 0.00 0.00 0.00 26 1009.6
20260507233044 57 264 4.0 12.0 0.00 0.00 0.00 26 1009.6
20260507232541 57 236 4.0 12.0 0.00 0.00 0.00 27 1009.7
20260507232039 57 254 5.0 12.0 0.00 0.00 0.00 26 1009.7
20260507231539 57 272 7.0 13.0 0.00 0.00 0.00 26 1009.8
20260507231140 57 276 2.0 11.0 0.00 0.00 0.00 25 1009.7
20260507230539 57 275 3.0 11.0 0.00 0.00 0.00 26 1009.8
20260507230045 57 291 5.0 11.0 0.00 0.00 0.00 26 1009.9
20260507225538 57 235 3.0 8.0 0.00 0.00 0.00 26 1009.9
20260507225038 57 242 4.0 8.0 0.00 0.00 0.00 26 1010.0
20260507224542 57 256 1.0 10.0 0.00 0.00 0.00 25 1010.0
20260507224036 57 271 4.0 14.0 0.00 0.00 0.00 26 1010.0
20260507223536 57 225 6.0 14.0 0.00 0.00 0.00 26 1010.1
20260507223036 57 290 3.0 14.0 0.00 0.00 0.00 27 1010.1
20260507222537 57 254 6.0 14.0 0.00 0.00 0.00 26 1010.1
20260507222035 57 263 5.0 12.0 0.00 0.00 0.00 26 1010.1
20260507221539 57 238 5.0 12.0 0.00 0.00 0.00 26 1010.2
20260507221134 57 266 5.0 13.0 0.00 0.00 0.00 27 1010.2
20260507220538 57 250 6.0 10.0 0.00 0.00 0.00 26 1010.3
20260507220036 57 246 5.0 14.0 0.00 0.00 0.00 26 1010.2
20260507215537 57 263 4.0 14.0 0.00 0.00 0.00 27 1010.2
20260507215034 57 211 2.0 13.0 0.00 0.00 0.00 28 1010.2
20260507214539 57 275 3.0 10.0 0.00 0.00 0.00 27 1010.2
20260507214034 57 261 5.0 11.0 0.00 0.00 0.00 27 1010.3
20260507213538 57 265 3.0 11.0 0.00 0.00 0.00 27 1010.3
20260507213042 57 256 5.0 11.0 0.00 0.00 0.00 27 1010.3
20260507212536 57 241 5.0 15.0 0.00 0.00 0.00 28 1010.3
20260507212038 57 244 8.0 15.0 0.00 0.00 0.00 27 1010.4
20260507211534 56 206 5.0 8.0 0.00 0.00 0.00 27 1010.4
20260507211133 56 266 2.0 10.0 0.00 0.00 0.00 28 1010.5
20260507210534 56 186 2.0 10.0 0.00 0.00 0.00 28 1010.5
20260507210033 56 244 6.0 17.0 0.00 0.00 0.00 27 1010.6
20260507205533 57 288 9.0 17.0 0.00 0.00 0.00 26 1010.5
20260507205032 57 238 4.0 10.0 0.00 0.00 0.00 27 1010.5
20260507204531 57 236 5.0 10.0 0.00 0.00 0.00 26 1010.6
20260507204030 57 236 1.0 10.0 0.00 0.00 0.00 26 1010.7
20260507203530 56 249 3.0 10.0 0.00 0.00 0.00 27 1010.8
20260507203038 56 299 0.0 12.0 0.00 0.00 0.00 27 1010.8
20260507202530 56 288 6.0 12.0 0.00 0.00 0.00 26 1010.8
20260507202029 56 290 2.0 10.0 0.00 0.00 0.00 26 1010.9
20260507201530 55 278 3.0 13.0 0.00 0.00 0.00 27 1010.9
20260507201129 56 273 1.0 9.0 0.00 0.00 0.00 27 1011.0
20260507200527 56 273 2.0 9.0 0.00 0.00 0.00 28 1011.0
20260507200028 56 292 3.0 9.0 0.00 0.00 0.00 27 1011.2
20260507195526 56 287 2.0 9.0 0.00 0.00 0.00 27 1011.1
20260507195026 56 317 2.0 12.0 0.00 0.00 0.00 27 1011.1
20260507194525 55 252 5.0 12.0 0.00 0.00 0.00 28 1011.1
20260507194024 55 252 3.0 9.0 0.00 0.00 0.00 27 1011.2
20260507193527 55 252 4.0 9.0 0.00 0.00 0.00 27 1011.2
20260507193023 55 249 2.0 8.0 0.00 0.00 0.00 27 1011.3
20260507192523 55 265 1.0 8.0 0.00 0.00 0.00 27 1011.3
20260507192023 55 267 6.0 9.0 0.00 0.00 0.00 28 1011.3
20260507191522 54 5 0.0 8.0 0.00 0.00 0.00 27 1011.3
20260507191124 54 290 2.0 7.0 0.00 0.00 0.00 27 1011.5
20260507190600 54 290 2.0 7.0 0.00 0.00 0.00 27 1011.4
20260507190105 54 296 3.0 10.0 0.00 0.00 0.00 27 1011.5
20260507185603 54 275 4.0 10.0 0.00 0.00 0.00 28 1011.5
20260507185059 54 270 3.0 9.0 0.00 0.00 0.00 28 1011.5
20260507184602 54 273 3.0 12.0 0.00 0.00 0.00 30 1011.4
20260507184057 53 240 3.0 12.0 0.00 0.00 0.00 30 1011.4
20260507183049 53 284 4.0 12.0 0.00 0.00 0.00 30 1011.5
20260507182547 53 208 5.0 12.0 0.00 0.00 0.00 30 1011.5
20260507182051 53 244 5.0 9.0 0.00 0.00 0.00 29 1011.5
20260507181547 53 277 0.0 15.0 0.00 0.00 0.00 29 1011.6
20260507181046 52 277 5.0 15.0 0.00 0.00 0.00 29 1011.8
20260507180549 53 298 4.0 10.0 0.00 0.00 0.00 29 1011.7
20260507180049 53 288 6.0 12.0 0.00 0.00 0.00 30 1011.7
20260507175550 53 315 1.0 8.0 0.00 0.00 0.00 29 1011.6
20260507175046 53 246 4.0 11.0 0.00 0.00 0.00 31 1011.9
20260507174546 53 263 4.0 11.0 0.00 0.00 0.00 29 1012.0
20260507174043 53 293 1.0 10.0 0.00 0.00 0.00 31 1012.0
20260507173642 52 238 5.0 14.0 0.00 0.00 0.00 30 1012.2
20260507173042 52 290 4.0 14.0 0.00 0.00 0.00 32 1012.2
20260507172545 52 254 6.0 11.0 0.00 0.00 0.00 30 1012.1
20260507172041 52 271 1.0 7.0 0.00 0.00 0.00 30 1012.2
20260507171542 52 258 1.0 9.0 0.00 0.00 0.00 33 1012.3
20260507171040 52 257 1.0 9.0 0.00 0.00 0.00 34 1012.3
20260507170539 51 294 1.0 5.0 0.00 0.00 0.00 33 1012.4
20260507170038 52 295 1.0 5.0 0.00 0.00 0.00 34 1012.4
20260507165536 51 293 1.0 7.0 0.00 0.00 0.00 34 1012.4
20260507165038 51 294 3.0 10.0 0.00 0.00 0.00 33 1012.5
20260507164542 51 18 2.0 10.0 0.00 0.00 0.00 33 1012.5
20260507164034 51 281 2.0 5.0 0.00 0.00 0.00 34 1012.5
20260507163633 51 279 1.0 5.0 0.00 0.00 0.00 33 1012.6
20260507163034 51 279 1.0 5.0 0.00 0.00 0.00 33 1012.6
20260507162533 51 243 1.0 4.0 0.00 0.00 0.00 35 1012.6
20260507162032 51 238 0.0 4.0 0.00 0.00 0.00 36 1012.6
20260507161530 51 237 0.0 3.0 0.00 0.00 0.00 37 1012.7
20260507161030 50 237 0.0 4.0 0.00 0.00 0.00 40 1012.7
20260507160529 49 237 0.0 9.0 0.00 0.00 0.00 41 1012.7
20260507160028 49 242 5.0 9.0 0.00 0.00 0.00 40 1012.8
20260507155528 49 236 1.0 9.0 0.00 0.00 0.00 39 1012.9
20260507155028 50 248 3.0 9.0 0.00 0.00 0.00 39 1012.9
20260507154527 51 262 1.0 4.0 0.00 0.00 0.00 40 1012.9
20260507154025 50 263 1.0 4.0 0.00 0.00 0.00 41 1013.0
20260507153626 49 263 0.0 7.0 0.00 0.00 0.00 42 1013.0
20260507153024 48 263 0.0 7.0 0.00 0.00 0.00 42 1013.0
20260507152522 48 263 3.0 7.0 0.00 0.00 0.00 43 1013.0
20260507152021 48 232 2.0 7.0 0.00 0.00 0.00 43 1013.0
20260507151521 48 112 1.0 7.0 0.00 0.00 0.00 45 1013.0
20260507151020 49 271 2.0 5.0 0.00 0.00 0.00 44 1013.0
20260507150519 48 277 0.0 5.0 0.00 0.00 0.00 45 1012.9
20260507150024 49 278 2.0 4.0 0.00 0.00 0.00 45 1013.0
20260507145520 48 279 0.0 3.0 0.00 0.00 0.00 46 1013.0
20260507145016 48 279 0.0 3.0 0.00 0.00 0.00 46 1013.1
20260507144523 48 279 0.0 2.0 0.00 0.00 0.00 47 1013.1
20260507144014 48 279 0.0 2.0 0.00 0.00 0.00 47 1013.2
20260507143612 47 279 0.0 2.0 0.00 0.00 0.00 48 1013.2
20260507143014 47 279 0.0 2.0 0.00 0.00 0.00 48 1013.3
20260507142512 46 279 0.0 2.0 0.00 0.00 0.00 48 1013.3
20260507142010 46 278 0.0 3.0 0.00 0.00 0.00 47 1013.4
20260507141509 45 278 1.0 4.0 0.00 0.00 0.00 48 1013.5
20260507141009 45 278 1.0 4.0 0.00 0.00 0.00 53 1013.5
20260507140512 45 261 1.0 4.0 0.00 0.00 0.00 52 1013.5
20260507140007 45 260 1.0 4.0 0.00 0.00 0.00 55 1013.5
20260507135505 45 261 0.0 3.0 0.00 0.00 0.00 57 1013.5
20260507135004 44 261 0.0 3.0 0.00 0.00 0.00 58 1013.5
20260507134508 44 261 1.0 3.0 0.00 0.00 0.00 58 1013.6
20260507134005 44 261 0.0 3.0 0.00 0.00 0.00 60 1013.6
20260507133601 43 261 1.0 3.0 0.00 0.00 0.00 62 1013.7
20260507133002 43 261 1.0 3.0 0.00 0.00 0.00 63 1013.6
20260507132501 43 261 0.0 2.0 0.00 0.00 0.00 66 1013.7
20260507132059 43 261 0.0 2.0 0.00 0.00 0.00 68 1013.6
20260507131558 42 261 0.0 2.0 0.00 0.00 0.00 69 1013.7
20260507131059 42 261 0.0 0.0 0.00 0.00 0.00 71 1013.7
20260507130558 41 261 0.0 1.0 0.00 0.00 0.00 73 1013.8
20260507130107 40 261 0.0 1.0 0.00 0.00 0.00 74 1013.9
20260507125554 40 261 0.0 1.0 0.00 0.00 0.00 76 1013.9
20260507125051 39 261 0.0 2.0 0.00 0.00 0.00 77 1013.9
20260507124550 39 261 0.0 2.0 0.00 0.00 0.00 78 1014.0
20260507124049 38 261 0.0 2.0 0.00 0.00 0.00 79 1013.9
20260507123548 37 261 0.0 0.0 0.00 0.00 0.00 81 1014.1
20260507123046 37 261 0.0 0.0 0.00 0.00 0.00 81 1014.0
20260507122546 36 261 0.0 0.0 0.00 0.00 0.00 82 1014.0
20260507122043 36 261 0.0 0.0 0.00 0.00 0.00 82 1014.0
20260507121545 35 261 0.0 0.0 0.00 0.00 0.00 82 1014.0
20260507121042 35 261 0.0 0.0 0.00 0.00 0.00 82 1014.0
20260507120539 35 261 0.0 1.0 0.00 0.00 0.00 81 1013.9
20260507120050 34 261 0.0 1.0 0.00 0.00 0.00 81 1013.9
20260507115536 34 261 0.0 1.0 0.00 0.00 0.00 81 1013.9
20260507115034 34 261 0.0 1.0 0.00 0.00 0.00 81 1013.9
20260507114602 33 261 0.0 0.0 0.00 0.00 0.00 81 1013.8
20260507114035 33 261 0.0 0.0 0.00 0.00 0.00 80 1013.8
20260507113533 33 261 0.0 0.0 0.00 0.00 0.00 80 1013.8
20260507113035 33 261 0.0 0.0 0.00 0.00 0.00 80 1013.8
20260507112535 33 261 0.0 0.0 0.00 0.00 0.00 80 1013.8
20260507112036 33 261 0.0 0.0 0.00 0.00 0.00 79 1013.8
20260507111535 33 261 0.0 0.0 0.00 0.00 0.00 79 1013.9
20260507111033 33 261 0.0 0.0 0.00 0.00 0.00 79 1013.8
20260507110534 33 261 0.0 0.0 0.00 0.00 0.00 78 1013.8
20260507110032 34 261 0.0 0.0 0.00 0.00 0.00 77 1013.8
20260507105533 34 261 0.0 0.0 0.00 0.00 0.00 77 1013.9
20260507105037 34 261 0.0 0.0 0.00 0.00 0.00 77 1013.8
20260507104532 34 261 0.0 0.0 0.00 0.00 0.00 76 1013.8
20260507104031 34 261 0.0 0.0 0.00 0.00 0.00 76 1013.7
20260507103532 35 261 0.0 0.0 0.00 0.00 0.00 74 1013.7
20260507103030 35 261 0.0 0.0 0.00 0.00 0.00 74 1013.7
20260507102531 35 261 0.0 0.0 0.00 0.00 0.00 74 1013.8
20260507102031 35 261 0.0 0.0 0.00 0.00 0.00 73 1013.7
20260507101531 35 261 0.0 0.0 0.00 0.00 0.00 73 1013.7
20260507101031 35 261 0.0 0.0 0.00 0.00 0.00 73 1013.8
20260507100530 35 261 0.0 0.0 0.00 0.00 0.00 72 1013.7
20260507100033 35 261 0.0 0.0 0.00 0.00 0.00 72 1013.8
20260507095529 35 261 0.0 1.0 0.00 0.00 0.00 71 1013.8
20260507095029 35 261 0.0 1.0 0.00 0.00 0.00 71 1013.9
20260507094528 35 261 0.0 0.0 0.00 0.00 0.00 70 1013.9
20260507094029 35 261 0.0 0.0 0.00 0.00 0.00 70 1013.9
20260507093528 35 261 0.0 1.0 0.00 0.00 0.00 70 1013.9
20260507093029 35 261 0.0 1.0 0.00 0.00 0.00 70 1013.9
20260507092528 35 261 0.0 0.0 0.00 0.00 0.00 70 1013.9
20260507092028 35 261 0.0 0.0 0.00 0.00 0.00 70 1013.9
20260507091533 35 261 0.0 1.0 0.00 0.00 0.00 70 1013.9
20260507091028 36 261 0.0 1.0 0.00 0.00 0.00 70 1013.9
20260507090529 36 261 0.0 1.0 0.00 0.00 0.00 70 1013.9
20260507090035 36 261 0.0 1.0 0.00 0.00 0.00 70 1013.9
20260507085528 36 261 0.0 1.0 0.00 0.00 0.00 70 1014.0
20260507085031 36 261 0.0 1.0 0.00 0.00 0.00 70 1014.0
20260507084528 36 261 0.0 1.0 0.00 0.00 0.00 70 1013.9
20260507084027 36 261 0.0 1.0 0.00 0.00 0.00 70 1014.0
20260507083527 36 261 0.0 1.0 0.00 0.00 0.00 69 1013.9
20260507083032 36 261 0.0 1.0 0.00 0.00 0.00 69 1013.9
20260507082526 36 261 0.0 0.0 0.00 0.00 0.00 69 1013.9
20260507082026 36 261 0.0 0.0 0.00 0.00 0.00 69 1014.0
20260507081526 36 261 0.0 1.0 0.00 0.00 0.00 69 1014.0
20260507081026 36 261 0.0 1.0 0.00 0.00 0.00 69 1014.0
20260507080527 36 261 0.0 0.0 0.00 0.00 0.00 68 1014.0
20260507080026 36 261 0.0 0.0 0.00 0.00 0.00 68 1014.0
20260507075525 36 261 0.0 0.0 0.00 0.00 0.00 68 1014.0
20260507075025 37 261 0.0 0.0 0.00 0.00 0.00 68 1013.9
20260507074525 37 261 0.0 0.0 0.00 0.00 0.00 67 1014.0
20260507074024 37 261 0.0 0.0 0.00 0.00 0.00 67 1014.0
20260507073524 37 261 0.0 0.0 0.00 0.00 0.00 67 1014.1
20260507073024 37 261 0.0 0.0 0.00 0.00 0.00 67 1014.1
20260507072526 37 261 0.0 0.0 0.00 0.00 0.00 67 1014.1
20260507072023 37 261 0.0 0.0 0.00 0.00 0.00 66 1014.2
20260507071523 37 261 0.0 0.0 0.00 0.00 0.00 66 1014.2
20260507071022 38 261 0.0 0.0 0.00 0.00 0.00 66 1014.3
20260507070522 38 261 0.0 0.0 0.00 0.00 0.00 65 1014.3
20260507070029 38 261 0.0 0.0 0.00 0.00 0.00 65 1014.4
20260507065520 38 261 0.0 0.0 0.00 0.00 0.00 64 1014.5
20260507065020 39 261 0.0 0.0 0.00 0.00 0.00 64 1014.5
20260507064523 39 261 0.0 0.0 0.00 0.00 0.00 64 1014.5
20260507064020 39 261 0.0 0.0 0.00 0.00 0.00 64 1014.6
20260507063520 39 261 0.0 0.0 0.00 0.00 0.00 64 1014.6
20260507063021 39 261 0.0 0.0 0.00 0.00 0.00 64 1014.6
20260507062520 39 261 0.0 0.0 0.00 0.00 0.00 64 1014.7
20260507062021 39 261 0.0 0.0 0.00 0.00 0.00 64 1014.7
20260507061520 39 261 0.0 1.0 0.00 0.00 0.00 64 1014.8
20260507061018 40 261 0.0 1.0 0.00 0.00 0.00 64 1014.7
20260507060519 40 261 0.0 1.0 0.00 0.00 0.00 64 1014.8
20260507060018 40 261 0.0 0.0 0.00 0.00 0.00 63 1014.8
20260507055519 40 261 0.0 0.0 0.00 0.00 0.00 62 1014.8
20260507055020 40 261 0.0 0.0 0.00 0.00 0.00 63 1014.8
20260507054521 40 261 0.0 0.0 0.00 0.00 0.00 62 1014.8
20260507054018 40 261 0.0 0.0 0.00 0.00 0.00 62 1014.8
20260507053518 40 261 0.0 1.0 0.00 0.00 0.00 61 1014.8
20260507053017 40 261 0.0 1.0 0.00 0.00 0.00 60 1014.8
20260507052516 40 261 0.0 1.0 0.00 0.00 0.00 60 1014.9
20260507052016 40 261 0.0 1.0 0.00 0.00 0.00 60 1014.9
20260507051517 40 261 0.0 0.0 0.00 0.00 0.00 60 1014.9
20260507051015 40 261 0.0 0.0 0.00 0.00 0.00 61 1014.9
20260507050515 40 261 0.0 0.0 0.00 0.00 0.00 61 1015.0
20260507050018 40 261 0.0 0.0 0.00 0.00 0.00 60 1015.0
20260507045515 40 261 0.0 0.0 0.00 0.00 0.00 61 1015.0
20260507045016 40 261 0.0 0.0 0.00 0.00 0.00 61 1015.0
20260507044516 40 261 0.0 0.0 0.00 0.00 0.00 61 1015.0
20260507044014 40 261 0.0 0.0 0.00 0.00 0.00 61 1015.0
20260507043514 40 261 0.0 0.0 0.00 0.00 0.00 60 1015.1
20260507043021 40 261 0.0 1.0 0.00 0.00 0.00 60 1015.0
20260507042514 40 261 0.0 2.0 0.00 0.00 0.00 59 1015.1
20260507042014 40 261 0.0 2.0 0.00 0.00 0.00 59 1015.2
20260507041514 40 261 0.0 2.0 0.00 0.00 0.00 59 1015.2
20260507041014 40 261 0.0 1.0 0.00 0.00 0.00 59 1015.2
20260507040517 40 261 0.0 1.0 0.00 0.00 0.00 58 1015.2
20260507040014 40 261 0.0 1.0 0.00 0.00 0.00 59 1015.2